Volver al catálogo

STARLINK-32090

ActivoComunicacionesVLEO
NORAD 59691·PAYLOAD·🇺🇸 United States

Lanzado May 8, 2024 desde Cape Canaveral Space Force Station

Loading…

Próximos Pases (próximas 24 horas)

TLE

ActualizadoSource: CelesTrak SupGP

Época: Sep 14, 2026, 20:40 UTC

1 59691C 24086K   26257.86159722  .00018693  00000+0  67715-3 0  2574
2 59691  43.0033  75.4286 0001717 272.8386 267.7102 15.27563573    19

Sigue STARLINK-32090 en tiempo real con AllMySat

Download on the App Store